Left ArrowRight Arrow

Hourly Observations for March 9, 2020

Temp ( °F °C ) Dew Point ( °F °C ) Humidity (%) Winds ( mph kmh ) Pressure ( in mb ) Visibility ( mi km ) Precip ( " mm )
12:53 am 00:53 Cloudy 30 -1.1 26 -3.3 85 85 SE 8 13 30.02 1017 10 16 0.00 0.00
1:53 am 01:53 Cloudy 31 -0.6 26 -3.3 82 82 SSE 10 17 30.00 1016 10 16 0.00 0.00
2:53 am 02:53 Mostly Clear 29 -1.7 25 -3.9 85 85 S 7 11 30.01 1016 10 16 0.00 0.00
3:53 am 03:53 Mostly Cloudy 29 -1.7 25 -3.9 85 85 SSE 5 7 29.99 1016 10 16 0.00 0.00
4:53 am 04:53 Cloudy 28 -2.2 25 -3.9 88 88 SSE 8 13 30.00 1016 10 16 0.00 0.00
5:53 am 05:53 Clear 26 -3.3 23 -5 88 88 SSE 7 11 30.01 1016 10 16 0.00 0.00
6:53 am 06:53 Clear 27 -2.8 23 -5 85 85 S 7 11 30.01 1016 10 16 0.00 0.00
7:53 am 07:53 Sunny 29 -1.7 24 -4.4 82 82 Calm 30.00 1016 10 16 0.00 0.00
8:53 am 08:53 Sunny 32 0 27 -2.8 82 82 Calm 30.01 1016 10 16 0.00 0.00
9:53 am 09:53 Sunny 38 3.3 30 -1.1 73 73 E 3 6 30.01 1016 10 16 0.00 0.00
10:53 am 10:53 Sunny N/A N/A N/A undefined N/A N/A N/A 0.00 0.00
11:53 am 11:53 Sunny 47 8.3 29 -1.7 50 50 SE 5 7 29.99 1016 10 16 0.00 0.00
12:53 pm 12:53 Sunny 49 9.4 26 -3.3 41 41 SE 9 15 29.98 1015 10 16 0.00 0.00
1:53 pm 13:53 Mostly Sunny 46 7.8 30 -1.1 54 54 N 14 22 29.99 1016 10 16 0.00 0.00
2:53 pm 14:53 Cloudy 45 7.2 30 -1.1 56 56 NW 13 20 30.00 1016 10 16 0.00 0.00
3:53 pm 15:53 Mostly Cloudy 42 5.6 29 -1.7 60 60 NNW 13 20 30.01 1016 10 16 0.00 0.00
4:53 pm 16:53 Cloudy 41 5 28 -2.2 60 60 NNW 13 20 30.03 1017 10 16 0.00 0.00
5:53 pm 17:53 Cloudy 39 3.9 28 -2.2 65 65 NNW 14 22 30.06 1018 10 16 0.00 0.00
6:53 pm 18:53 Mostly Cloudy 36 2.2 28 -2.2 73 73 NW 12 19 30.08 1019 10 16 0.00 0.00
7:53 pm 19:53 Cloudy 36 2.2 28 -2.2 73 73 NW 12 19 30.09 1019 10 16 0.00 0.00
8:50 pm 20:50 Cloudy with Light Snow 36 2 28 -2 75 75 NW 12 19 30.12 1020 2 3 0.00 0.00
8:53 pm 20:53 Cloudy with Light Snow 35 1.7 29 -1.7 78 78 NW 13 20 30.11 1020 2 2 0.00 0.00
9:35 pm 21:35 Cloudy with Light Snow 34 1.1 30 -1.1 85 85 NNW 8 13 30.16 1021 3 5 0.01 0.25
9:53 pm 21:53 Cloudy with Light Snow 34 1.1 30 -1.1 85 85 NW 8 13 30.11 1020 3 4 0.02 0.51
10:01 pm 22:01 Cloudy with Light Snow 34 1.1 30 -1.1 85 85 NNW 8 13 30.16 1021 1 2 0.00 0.00
10:05 pm 22:05 Cloudy with Light Snow 34 1.1 30 -1.1 85 85 NNW 8 13 30.16 1021 1 1 0.01 0.25
10:15 pm 22:15 Cloudy with Light Snow 34 1.1 30 -1.1 85 85 N 8 13 30.16 1021 1 2 0.02 0.51
10:22 pm 22:22 Cloudy with Light Snow 33 0.6 30 -1.1 89 89 NNW 9 15 30.17 1022 1 2 0.02 0.51
10:27 pm 22:27 Cloudy with Light Snow 33 0.6 30 -1.1 89 89 NNW 9 15 30.17 1022 1 2 0.03 0.76
10:36 pm 22:36 Mostly Cloudy with Light Snow 33 0.6 30 -1.1 89 89 NNW 8 13 30.17 1022 1 1 0.03 0.76
10:53 pm 22:53 Cloudy with Light Snow 33 0.6 30 -1.1 89 89 NNW 8 13 30.17 1022 1 2 0.03 0.76
11:13 pm 23:13 Mostly Cloudy with Light Snow 33 0.6 30 -1.1 89 89 NNW 8 13 30.17 1022 1 2 0.01 0.25
11:24 pm 23:24 Cloudy with Light Snow 33 0.6 30 -1.1 89 89 NW 7 11 30.17 1022 1 2 0.01 0.25
11:53 pm 23:53 Cloudy with Light Snow 33 0.6 30 -1.1 89 89 NNW 5 7 30.09 1019 2 3 0.01 0.25

Powered by Vaisala Xweather